This is the latest recevied weather packets stored in our database for station/object SP6KBU-8. If no packets are shown the sender has not sent any weather packets the latest 10 day(s).
| Time | Temp. | Humidity | Pressure | Rain* | Wind** | Luminosity | Snow |
|---|---|---|---|---|---|---|---|
| 1777604068 | 7.22° C | 60% | 1029.9 hPa | - | - | - | - |
| 1777603169 | 7.78° C | 59% | 1029.8 hPa | - | - | - | - |
| 1777602270 | 7.78° C | 59% | 1030 hPa | - | - | - | - |
| 1777601373 | 7.78° C | 59% | 1029.9 hPa | - | - | - | - |
| 1777600474 | 7.78° C | 58% | 1029.9 hPa | - | - | - | - |
| 1777599575 | 7.78° C | 58% | 1030 hPa | - | - | - | - |
| 1777597777 | 7.78° C | 57% | 1029.9 hPa | - | - | - | - |
| 1777596878 | 8.33° C | 57% | 1029.9 hPa | - | - | - | - |
| 1777595979 | 8.33° C | 56% | 1029.9 hPa | - | - | - | - |
| 1777595081 | 8.89° C | 55% | 1029.9 hPa | - | - | - | - |
| 1777594183 | 9.44° C | 53% | 1029.9 hPa | - | - | - | - |
| 1777593285 | 9.44° C | 52% | 1029.9 hPa | - | - | - | - |
| 1777592386 | 9.44° C | 53% | 1030 hPa | - | - | - | - |
| 1777591487 | 9.44° C | 52% | 1029.9 hPa | - | - | - | - |
| 1777590588 | 9.44° C | 53% | 1030.2 hPa | - | - | - | - |
| 1777589690 | 8.89° C | 53% | 1030.2 hPa | - | - | - | - |
| 1777587892 | 8.89° C | 53% | 1030.3 hPa | - | - | - | - |
| 1777586994 | 8.89° C | 53% | 1030.3 hPa | - | - | - | - |
| 1777586093 | 8.89° C | 53% | 1030.3 hPa | - | - | - | - |
| 1777585194 | 8.89° C | 53% | 1030.2 hPa | - | - | - | - |
| 1777584295 | 8.33° C | 53% | 1030.2 hPa | - | - | - | - |
| 1777583397 | 8.33° C | 53% | 1030.3 hPa | - | - | - | - |
| 1777582499 | 8.33° C | 52% | 1030.3 hPa | - | - | - | - |
| 1777581601 | 8.33° C | 54% | 1030.4 hPa | - | - | - | - |
| 1777580702 | 8.33° C | 53% | 1030.5 hPa | - | - | - | - |
* Rain since midnight (hover to see other rain measurements)
** Current wind speed in m/s (hover to see current wind gust speed)